| time (UTC) | temp F | wind direction | speed MPH | gust MPH | rain 1hr in | rain 24hr in | rain mn in | humidity % | barometer mb |
| 20260502202829 | 91 | 355 | 0.0 | 2.0 | 0.00 | 0.00 | 0.00 | 14 | 1010.6 |
| 20260502202329 | 91 | 246 | 0.0 | 14.0 | 0.00 | 0.00 | 0.00 | 15 | 1010.6 |
| 20260502201828 | 91 | 190 | 0.0 | 14.0 | 0.00 | 0.00 | 0.00 | 15 | 1010.6 |
| 20260502201329 | 92 | 268 | 0.0 | 8.0 | 0.00 | 0.00 | 0.00 | 16 | 1010.6 |
| 20260502200829 | 92 | 163 | 0.0 | 8.0 | 0.00 | 0.00 | 0.00 | 16 | 1010.7 |
| 20260502200331 | 92 | 188 | 0.0 | 5.0 | 0.00 | 0.00 | 0.00 | 16 | 1010.8 |
| 20260502200048 | 91 | 201 | 0.0 | 5.0 | 0.00 | 0.00 | 0.00 | 16 | 1010.8 |
| 20260502195329 | 90 | 99 | 0.0 | 6.0 | 0.00 | 0.00 | 0.00 | 17 | 1010.9 |
| 20260502194829 | 90 | 176 | 0.0 | 6.0 | 0.00 | 0.00 | 0.00 | 17 | 1010.9 |
| 20260502194329 | 90 | 178 | 1.0 | 9.0 | 0.00 | 0.00 | 0.00 | 18 | 1011.1 |
| 20260502193829 | 90 | 160 | 1.0 | 11.0 | 0.00 | 0.00 | 0.00 | 19 | 1011.1 |
| 20260502193329 | 90 | 142 | 1.0 | 11.0 | 0.00 | 0.00 | 0.00 | 19 | 1011.1 |
| 20260502192829 | 89 | 155 | 1.0 | 7.0 | 0.00 | 0.00 | 0.00 | 19 | 1011.2 |
| 20260502192329 | 89 | 186 | 1.0 | 14.0 | 0.00 | 0.00 | 0.00 | 20 | 1011.3 |
| 20260502191829 | 89 | 162 | 1.0 | 14.0 | 0.00 | 0.00 | 0.00 | 19 | 1011.4 |
| 20260502191330 | 88 | 191 | 1.0 | 12.0 | 0.00 | 0.00 | 0.00 | 20 | 1011.4 |
| 20260502190829 | 88 | 38 | 1.0 | 12.0 | 0.00 | 0.00 | 0.00 | 19 | 1011.5 |
| 20260502190330 | 89 | 76 | 1.0 | 7.0 | 0.00 | 0.00 | 0.00 | 20 | 1011.5 |
| 20260502185829 | 88 | 134 | 1.0 | 7.0 | 0.00 | 0.00 | 0.00 | 20 | 1011.7 |
| 20260502185329 | 88 | 194 | 0.0 | 1.0 | 0.00 | 0.00 | 0.00 | 21 | 1011.7 |
| 20260502184829 | 87 | 155 | 0.0 | 1.0 | 0.00 | 0.00 | 0.00 | 23 | 1011.8 |
| 20260502184329 | 86 | 59 | 0.0 | 1.0 | 0.00 | 0.00 | 0.00 | 23 | 1011.9 |
| 20260502183825 | 86 | 86 | 1.0 | 8.0 | 0.00 | 0.00 | 0.00 | 23 | 1012.0 |
| 20260502183319 | 86 | 51 | 1.0 | 8.0 | 0.00 | 0.00 | 0.00 | 22 | 1012.0 |
| 20260502183038 | 86 | 67 | 0.0 | 10.0 | 0.00 | 0.00 | 0.00 | 22 | 1012.1 |
| 20260502182532 | 86 | 154 | 0.0 | 10.0 | 0.00 | 0.00 | 0.00 | 23 | 1012.3 |
| 20260502181802 | 85 | 144 | 1.0 | 13.0 | 0.00 | 0.00 | 0.00 | 23 | 1012.4 |
| 20260502181302 | 84 | 338 | 3.0 | 13.0 | 0.00 | 0.00 | 0.00 | 23 | 1012.4 |
| 20260502180801 | 84 | 42 | 2.0 | 15.0 | 0.00 | 0.00 | 0.00 | 23 | 1012.4 |
| 20260502180301 | 85 | 53 | 1.0 | 15.0 | 0.00 | 0.00 | 0.00 | 22 | 1012.5 |
| 20260502170301 | 84 | 144 | 0.0 | 5.0 | 0.00 | 0.00 | 0.00 | 26 | 1012.7 |
| 20260502164250 | 83 | 186 | 2.0 | 12.0 | 0.00 | 0.00 | 0.00 | 27 | 1012.8 |
| 20260502164003 | 83 | 136 | 2.0 | 12.0 | 0.00 | 0.00 | 0.00 | 27 | 1012.8 |
| 20260502163239 | 83 | 150 | 1.0 | 12.0 | 0.00 | 0.00 | 0.00 | 27 | 1012.7 |
| 20260502162937 | 82 | 103 | 1.0 | 13.0 | 0.00 | 0.00 | 0.00 | 28 | 1012.6 |
| 20260502162926 | 82 | 65 | 1.0 | 12.0 | 0.00 | 0.00 | 0.00 | 27 | 1012.7 |
| 20260502161956 | 81 | 71 | 1.0 | 13.0 | 0.00 | 0.00 | 0.00 | 28 | 1012.7 |
| 20260502161230 | 81 | 125 | 2.0 | 18.0 | 0.00 | 0.00 | 0.00 | 28 | 1012.7 |
| 20260502160730 | 81 | 59 | 3.0 | 19.0 | 0.00 | 0.00 | 0.00 | 28 | 1012.6 |
| 20260502160230 | 81 | 44 | 3.0 | 19.0 | 0.00 | 0.00 | 0.00 | 29 | 1012.6 |
| 20260502152229 | 80 | 87 | 2.0 | 12.0 | 0.00 | 0.00 | 0.00 | 28 | 1012.3 |
| 20260502151728 | 79 | 80 | 2.0 | 12.0 | 0.00 | 0.00 | 0.00 | 28 | 1012.3 |
| 20260502151448 | 79 | 51 | 2.0 | 16.0 | 0.00 | 0.00 | 0.00 | 28 | 1012.3 |
| 20260502150728 | 79 | 57 | 2.0 | 16.0 | 0.00 | 0.00 | 0.00 | 28 | 1012.2 |
| 20260502150230 | 79 | 300 | 1.0 | 14.0 | 0.00 | 0.00 | 0.00 | 28 | 1012.2 |
| 20260502130230 | 70 | 343 | 0.0 | 0.0 | 0.00 | 0.00 | 0.00 | 27 | 1010.9 |
| 20260502123729 | 72 | 136 | 0.0 | 0.0 | 0.00 | 0.00 | 0.00 | 25 | 1010.4 |
| 20260502123451 | 72 | 136 | 0.0 | 0.0 | 0.00 | 0.00 | 0.00 | 25 | 1010.4 |
| 20260502122729 | 72 | 136 | 0.0 | 0.0 | 0.00 | 0.00 | 0.00 | 26 | 1010.3 |
| 20260502122452 | 72 | 136 | 0.0 | 0.0 | 0.00 | 0.00 | 0.00 | 26 | 1010.2 |
| 20260502121947 | 72 | 136 | 0.0 | 0.0 | 0.00 | 0.00 | 0.00 | 26 | 1010.2 |
| 20260502121225 | 72 | 136 | 0.0 | 0.0 | 0.00 | 0.00 | 0.00 | 26 | 1010.1 |
| 20260502120951 | 72 | 136 | 0.0 | 0.0 | 0.00 | 0.00 | 0.00 | 26 | 1010.1 |
| 20260502120223 | 72 | 136 | 0.0 | 0.0 | 0.00 | 0.00 | 0.00 | 26 | 1010.1 |
| 20260502115217 | 72 | 136 | 0.0 | 0.0 | 0.00 | 0.00 | 0.00 | 25 | 1010.0 |
| 20260502114716 | 73 | 136 | 0.0 | 0.0 | 0.00 | 0.00 | 0.00 | 25 | 1010.0 |
| 20260502114215 | 73 | 174 | 0.0 | 0.0 | 0.00 | 0.00 | 0.00 | 25 | 1010.0 |
| 20260502113936 | 74 | 178 | 0.0 | 0.0 | 0.00 | 0.00 | 0.00 | 24 | 1009.9 |
| 20260502113212 | 74 | 178 | 0.0 | 0.0 | 0.00 | 0.00 | 0.00 | 23 | 1009.9 |
| 20260502112709 | 74 | 178 | 0.0 | 0.0 | 0.00 | 0.00 | 0.00 | 23 | 1010.0 |
| 20260502112210 | 74 | 178 | 0.0 | 0.0 | 0.00 | 0.00 | 0.00 | 23 | 1009.9 |
| 20260502111709 | 75 | 178 | 0.0 | 1.0 | 0.00 | 0.00 | 0.00 | 23 | 1009.9 |
| 20260502111209 | 75 | 178 | 0.0 | 1.0 | 0.00 | 0.00 | 0.00 | 22 | 1009.8 |
| 20260502110709 | 77 | 178 | 0.0 | 0.0 | 0.00 | 0.00 | 0.00 | 21 | 1009.8 |
| 20260502110210 | 77 | 24 | 0.0 | 0.0 | 0.00 | 0.00 | 0.00 | 20 | 1009.7 |
| 20260502105708 | 77 | 24 | 0.0 | 0.0 | 0.00 | 0.00 | 0.00 | 20 | 1009.6 |
| 20260502105434 | 77 | 25 | 0.0 | 0.0 | 0.00 | 0.00 | 0.00 | 20 | 1009.6 |
| 20260502104702 | 78 | 5 | 0.0 | 0.0 | 0.00 | 0.00 | 0.00 | 20 | 1009.6 |
| 20260502104200 | 78 | 21 | 0.0 | 0.0 | 0.00 | 0.00 | 0.00 | 20 | 1009.5 |
| 20260502103702 | 78 | 30 | 0.0 | 0.0 | 0.00 | 0.00 | 0.00 | 20 | 1009.5 |
| 20260502103202 | 78 | 13 | 0.0 | 0.0 | 0.00 | 0.00 | 0.00 | 20 | 1009.5 |
| 20260502102920 | 78 | 32 | 0.0 | 0.0 | 0.00 | 0.00 | 0.00 | 20 | 1009.4 |
| 20260502102201 | 78 | 38 | 0.0 | 1.0 | 0.00 | 0.00 | 0.00 | 20 | 1009.4 |
| 20260502101922 | 78 | 59 | 0.0 | 1.0 | 0.00 | 0.00 | 0.00 | 20 | 1009.4 |
| 20260502101201 | 78 | 52 | 0.0 | 1.0 | 0.00 | 0.00 | 0.00 | 20 | 1009.4 |
| 20260502100702 | 78 | 5 | 0.0 | 1.0 | 0.00 | 0.00 | 0.00 | 20 | 1009.3 |
| 20260502100202 | 78 | 15 | 0.0 | 2.0 | 0.00 | 0.00 | 0.00 | 20 | 1009.4 |
| 20260502091151 | 79 | 37 | 0.0 | 8.0 | 0.00 | 0.00 | 0.00 | 20 | 1009.3 |
| 20260502090649 | 79 | 344 | 0.0 | 8.0 | 0.00 | 0.00 | 0.00 | 20 | 1009.3 |
| 20260502090149 | 79 | 344 | 0.0 | 9.0 | 0.00 | 0.00 | 0.00 | 20 | 1009.3 |
| 20260502071117 | 78 | 97 | 0.0 | 0.0 | 0.00 | 0.00 | 0.00 | 20 | 1008.7 |
| 20260502070618 | 77 | 59 | 0.0 | 0.0 | 0.00 | 0.00 | 0.00 | 20 | 1008.7 |
| 20260502070117 | 77 | 270 | 0.0 | 0.0 | 0.00 | 0.00 | 0.00 | 21 | 1008.7 |
| 20260502065613 | 78 | 270 | 0.0 | 0.0 | 0.00 | 0.00 | 0.00 | 21 | 1008.8 |
| 20260502065114 | 78 | 270 | 0.0 | 0.0 | 0.00 | 0.00 | 0.00 | 20 | 1008.7 |
| 20260502064613 | 80 | 270 | 0.0 | 0.0 | 0.00 | 0.00 | 0.00 | 20 | 1008.7 |
| 20260502064112 | 80 | 136 | 0.0 | 0.0 | 0.00 | 0.00 | 0.00 | 18 | 1008.6 |
| 20260502063611 | 81 | 150 | 0.0 | 2.0 | 0.00 | 0.00 | 0.00 | 18 | 1008.6 |
| 20260502063109 | 81 | 150 | 0.0 | 2.0 | 0.00 | 0.00 | 0.00 | 17 | 1008.6 |
| 20260502062609 | 81 | 141 | 0.0 | 5.0 | 0.00 | 0.00 | 0.00 | 17 | 1008.5 |
| 20260502062105 | 81 | 119 | 0.0 | 5.0 | 0.00 | 0.00 | 0.00 | 17 | 1008.6 |
| 20260502062047 | 81 | 142 | 0.0 | 0.0 | 0.00 | 0.00 | 0.00 | 17 | 1008.5 |
| 20260502061105 | 82 | 140 | 0.0 | 0.0 | 0.00 | 0.00 | 0.00 | 17 | 1008.5 |
| 20260502060826 | 82 | 140 | 0.0 | 0.0 | 0.00 | 0.00 | 0.00 | 17 | 1008.5 |
| 20260502060106 | 82 | 140 | 0.0 | 0.0 | 0.00 | 0.00 | 0.00 | 16 | 1008.4 |
| 20260502055829 | 83 | 140 | 0.0 | 0.0 | 0.00 | 0.00 | 0.00 | 16 | 1008.3 |
| 20260502055106 | 83 | 139 | 0.0 | 0.0 | 0.00 | 0.00 | 0.00 | 16 | 1008.3 |
| 20260502054605 | 83 | 142 | 0.0 | 0.0 | 0.00 | 0.00 | 0.00 | 15 | 1008.3 |
| 20260502054106 | 83 | 142 | 0.0 | 0.0 | 0.00 | 0.00 | 0.00 | 15 | 1008.3 |
| 20260502053834 | 83 | 142 | 0.0 | 1.0 | 0.00 | 0.00 | 0.00 | 15 | 1008.2 |
| 20260502053105 | 83 | 134 | 0.0 | 1.0 | 0.00 | 0.00 | 0.00 | 15 | 1008.2 |
| 20260502052825 | 83 | 129 | 0.0 | 0.0 | 0.00 | 0.00 | 0.00 | 16 | 1008.1 |
| 20260502052550 | 83 | 121 | 0.0 | 0.0 | 0.00 | 0.00 | 0.00 | 16 | 1008.1 |
| 20260502051606 | 83 | 120 | 0.0 | 0.0 | 0.00 | 0.00 | 0.00 | 16 | 1008.1 |
| 20260502051105 | 83 | 132 | 0.0 | 1.0 | 0.00 | 0.00 | 0.00 | 16 | 1008.1 |
| 20260502050603 | 83 | 131 | 0.0 | 1.0 | 0.00 | 0.00 | 0.00 | 16 | 1008.1 |
| 20260502045604 | 83 | 132 | 0.0 | 6.0 | 0.00 | 0.00 | 0.00 | 17 | 1008.0 |
| 20260502045102 | 83 | 113 | 0.0 | 6.0 | 0.00 | 0.00 | 0.00 | 17 | 1008.1 |
| 20260502044602 | 83 | 126 | 0.0 | 1.0 | 0.00 | 0.00 | 0.00 | 17 | 1008.0 |
| 20260502044102 | 83 | 120 | 0.0 | 0.0 | 0.00 | 0.00 | 0.00 | 17 | 1008.1 |
| 20260502043600 | 83 | 130 | 0.0 | 1.0 | 0.00 | 0.00 | 0.00 | 17 | 1008.1 |
| 20260502043053 | 83 | 129 | 0.0 | 1.0 | 0.00 | 0.00 | 0.00 | 17 | 1008.1 |
| 20260502042548 | 83 | 132 | 0.0 | 0.0 | 0.00 | 0.00 | 0.00 | 17 | 1008.1 |
| 20260502042041 | 83 | 132 | 0.0 | 0.0 | 0.00 | 0.00 | 0.00 | 18 | 1008.0 |
| 20260502041804 | 83 | 131 | 0.0 | 0.0 | 0.00 | 0.00 | 0.00 | 18 | 1007.8 |
| 20260502041039 | 83 | 132 | 0.0 | 0.0 | 0.00 | 0.00 | 0.00 | 18 | 1007.7 |
| 20260502040801 | 83 | 130 | 0.0 | 0.0 | 0.00 | 0.00 | 0.00 | 19 | 1007.7 |
| 20260502040035 | 83 | 159 | 0.0 | 0.0 | 0.00 | 0.00 | 0.00 | 18 | 1007.6 |
| 20260502035536 | 83 | 159 | 0.0 | 0.0 | 0.00 | 0.00 | 0.00 | 19 | 1007.6 |
| 20260502035034 | 83 | 176 | 0.0 | 0.0 | 0.00 | 0.00 | 0.00 | 19 | 1007.5 |
| 20260502034533 | 83 | 176 | 0.0 | 0.0 | 0.00 | 0.00 | 0.00 | 19 | 1007.5 |
| 20260502034030 | 83 | 181 | 0.0 | 0.0 | 0.00 | 0.00 | 0.00 | 19 | 1007.5 |
| 20260502033529 | 83 | 182 | 0.0 | 0.0 | 0.00 | 0.00 | 0.00 | 19 | 1007.4 |
| 20260502033249 | 83 | 182 | 0.0 | 0.0 | 0.00 | 0.00 | 0.00 | 19 | 1007.3 |
| 20260502032529 | 83 | 182 | 0.0 | 0.0 | 0.00 | 0.00 | 0.00 | 19 | 1007.2 |
| 20260502032031 | 83 | 184 | 0.0 | 0.0 | 0.00 | 0.00 | 0.00 | 19 | 1007.2 |
| 20260502031529 | 83 | 184 | 0.0 | 0.0 | 0.00 | 0.00 | 0.00 | 19 | 1007.1 |
| 20260502031029 | 83 | 184 | 0.0 | 0.0 | 0.00 | 0.00 | 0.00 | 19 | 1007.1 |
| 20260502030530 | 83 | 184 | 0.0 | 0.0 | 0.00 | 0.00 | 0.00 | 19 | 1007.0 |
| 20260502030028 | 83 | 184 | 0.0 | 0.0 | 0.00 | 0.00 | 0.00 | 20 | 1007.0 |
| 20260502025755 | 83 | 185 | 0.0 | 0.0 | 0.00 | 0.00 | 0.00 | 20 | 1007.0 |
| 20260502025029 | 83 | 185 | 0.0 | 0.0 | 0.00 | 0.00 | 0.00 | 20 | 1006.9 |
| 20260502024758 | 84 | 185 | 0.0 | 0.0 | 0.00 | 0.00 | 0.00 | 20 | 1006.9 |
| 20260502024251 | 84 | 185 | 0.0 | 0.0 | 0.00 | 0.00 | 0.00 | 19 | 1006.8 |
| 20260502023516 | 84 | 185 | 0.0 | 0.0 | 0.00 | 0.00 | 0.00 | 19 | 1006.7 |
| 20260502023011 | 84 | 184 | 0.0 | 0.0 | 0.00 | 0.00 | 0.00 | 19 | 1006.6 |
| 20260502022511 | 85 | 172 | 0.0 | 2.0 | 0.00 | 0.00 | 0.00 | 19 | 1006.6 |
| 20260502022232 | 85 | 199 | 0.0 | 2.0 | 0.00 | 0.00 | 0.00 | 19 | 1006.5 |
| 20260502021508 | 85 | 203 | 0.0 | 2.0 | 0.00 | 0.00 | 0.00 | 19 | 1006.5 |
| 20260502021005 | 85 | 207 | 0.0 | 2.0 | 0.00 | 0.00 | 0.00 | 19 | 1006.4 |
| 20260502020724 | 86 | 207 | 0.0 | 6.0 | 0.00 | 0.00 | 0.00 | 18 | 1006.4 |
| 20260502020001 | 86 | 212 | 0.0 | 6.0 | 0.00 | 0.00 | 0.00 | 18 | 1006.4 |
| 20260502015501 | 86 | 206 | 0.0 | 0.0 | 0.00 | 0.00 | 0.00 | 18 | 1006.4 |
| 20260502015000 | 86 | 205 | 0.0 | 0.0 | 0.00 | 0.00 | 0.00 | 18 | 1006.4 |
| 20260502014501 | 87 | 213 | 0.0 | 0.0 | 0.00 | 0.00 | 0.00 | 18 | 1006.3 |
| 20260502014449 | 87 | 207 | 0.0 | 5.0 | 0.00 | 0.00 | 0.00 | 18 | 1006.3 |
| 20260502013501 | 87 | 203 | 0.0 | 5.0 | 0.00 | 0.00 | 0.00 | 18 | 1006.3 |
| 20260502013001 | 87 | 221 | 0.0 | 1.0 | 0.00 | 0.00 | 0.00 | 18 | 1006.3 |
| 20260502012501 | 87 | 213 | 0.0 | 6.0 | 0.00 | 0.00 | 0.00 | 17 | 1006.3 |
| 20260502012003 | 87 | 191 | 0.0 | 6.0 | 0.00 | 0.00 | 0.00 | 18 | 1006.3 |
| 20260502011502 | 88 | 224 | 0.0 | 0.0 | 0.00 | 0.00 | 0.00 | 18 | 1006.4 |
| 20260502011000 | 88 | 234 | 0.0 | 1.0 | 0.00 | 0.00 | 0.00 | 18 | 1006.4 |
| 20260502010719 | 88 | 230 | 0.0 | 1.0 | 0.00 | 0.00 | 0.00 | 18 | 1006.5 |
| 20260502010001 | 88 | 217 | 0.0 | 1.0 | 0.00 | 0.00 | 0.00 | 18 | 1006.4 |
| 20260502005938 | 88 | 177 | 0.0 | 1.0 | 0.00 | 0.00 | 0.00 | 18 | 1006.5 |
| 20260502004953 | 88 | 217 | 0.0 | 1.0 | 0.00 | 0.00 | 0.00 | 18 | 1006.5 |
| 20260502004455 | 88 | 232 | 0.0 | 0.0 | 0.00 | 0.00 | 0.00 | 17 | 1006.5 |
| 20260502003951 | 88 | 250 | 0.0 | 0.0 | 0.00 | 0.00 | 0.00 | 17 | 1006.5 |
| 20260502003451 | 88 | 234 | 0.0 | 1.0 | 0.00 | 0.00 | 0.00 | 17 | 1006.4 |
| 20260502002952 | 88 | 221 | 0.0 | 1.0 | 0.00 | 0.00 | 0.00 | 18 | 1006.5 |
| 20260502002449 | 88 | 247 | 0.0 | 2.0 | 0.00 | 0.00 | 0.00 | 18 | 1006.5 |
| 20260502001947 | 88 | 246 | 0.0 | 2.0 | 0.00 | 0.00 | 0.00 | 18 | 1006.5 |
| 20260502001445 | 88 | 265 | 0.0 | 3.0 | 0.00 | 0.00 | 0.00 | 18 | 1006.5 |
| 20260502000943 | 89 | 200 | 0.0 | 3.0 | 0.00 | 0.00 | 0.00 | 18 | 1006.5 |
| 20260502000446 | 89 | 250 | 0.0 | 1.0 | 0.00 | 0.00 | 0.00 | 18 | 1006.6 |
| 20260501235943 | 89 | 273 | 0.0 | 10.0 | 0.00 | 0.00 | 0.00 | 18 | 1006.6 |
| 20260501235443 | 89 | 267 | 0.0 | 10.0 | 0.00 | 0.00 | 0.00 | 18 | 1006.6 |
| 20260501234944 | 89 | 250 | 0.0 | 0.0 | 0.00 | 0.00 | 0.00 | 18 | 1006.7 |
| 20260501234440 | 89 | 234 | 0.0 | 1.0 | 0.00 | 0.00 | 0.00 | 17 | 1006.7 |
| 20260501234433 | 89 | 200 | 0.0 | 3.0 | 0.00 | 0.00 | 0.00 | 17 | 1006.7 |
| 20260501233440 | 89 | 234 | 0.0 | 3.0 | 0.00 | 0.00 | 0.00 | 16 | 1006.7 |
| 20260501232941 | 89 | 235 | 0.0 | 1.0 | 0.00 | 0.00 | 0.00 | 17 | 1006.7 |
| 20260501232924 | 89 | 199 | 0.0 | 0.0 | 0.00 | 0.00 | 0.00 | 17 | 1006.7 |
| 20260501231941 | 89 | 243 | 0.0 | 2.0 | 0.00 | 0.00 | 0.00 | 17 | 1006.7 |
| 20260501231434 | 88 | 225 | 0.0 | 2.0 | 0.00 | 0.00 | 0.00 | 17 | 1006.8 |
| 20260501230935 | 88 | 246 | 0.0 | 4.0 | 0.00 | 0.00 | 0.00 | 17 | 1006.8 |
| 20260501230433 | 88 | 227 | 0.0 | 5.0 | 0.00 | 0.00 | 0.00 | 17 | 1006.8 |
| 20260501230158 | 88 | 198 | 0.0 | 5.0 | 0.00 | 0.00 | 0.00 | 18 | 1006.9 |
| 20260501225922 | 88 | 244 | 1.0 | 7.0 | 0.00 | 0.00 | 0.00 | 18 | 1006.9 |
| 20260501224932 | 88 | 238 | 1.0 | 7.0 | 0.00 | 0.00 | 0.00 | 19 | 1007.0 |
| 20260501224433 | 88 | 286 | 0.0 | 5.0 | 0.00 | 0.00 | 0.00 | 19 | 1006.9 |
| 20260501223933 | 88 | 263 | 0.0 | 4.0 | 0.00 | 0.00 | 0.00 | 19 | 1007.0 |
| 20260501223433 | 88 | 213 | 0.0 | 4.0 | 0.00 | 0.00 | 0.00 | 19 | 1007.1 |
| 20260501223155 | 88 | 224 | 1.0 | 8.0 | 0.00 | 0.00 | 0.00 | 19 | 1007.2 |
| 20260501222433 | 88 | 215 | 1.0 | 8.0 | 0.00 | 0.00 | 0.00 | 19 | 1007.3 |
| 20260501221932 | 88 | 216 | 1.0 | 10.0 | 0.00 | 0.00 | 0.00 | 20 | 1007.3 |
| 20260501221433 | 87 | 220 | 1.0 | 10.0 | 0.00 | 0.00 | 0.00 | 20 | 1007.4 |
| 20260501220932 | 88 | 221 | 0.0 | 6.0 | 0.00 | 0.00 | 0.00 | 20 | 1007.4 |
| 20260501220651 | 87 | 258 | 0.0 | 5.0 | 0.00 | 0.00 | 0.00 | 20 | 1007.5 |
| 20260501215933 | 88 | 250 | 0.0 | 5.0 | 0.00 | 0.00 | 0.00 | 20 | 1007.6 |
| 20260501215432 | 88 | 173 | 0.0 | 1.0 | 0.00 | 0.00 | 0.00 | 19 | 1007.6 |
| 20260501215153 | 88 | 199 | 0.0 | 1.0 | 0.00 | 0.00 | 0.00 | 20 | 1007.7 |
| 20260501214432 | 88 | 160 | 0.0 | 3.0 | 0.00 | 0.00 | 0.00 | 20 | 1007.8 |
| 20260501213933 | 87 | 221 | 0.0 | 4.0 | 0.00 | 0.00 | 0.00 | 20 | 1008.0 |
| 20260501213433 | 87 | 209 | 0.0 | 4.0 | 0.00 | 0.00 | 0.00 | 21 | 1008.1 |
| 20260501212933 | 87 | 220 | 0.0 | 3.0 | 0.00 | 0.00 | 0.00 | 21 | 1008.1 |
| 20260501212432 | 87 | 338 | 0.0 | 3.0 | 0.00 | 0.00 | 0.00 | 20 | 1008.2 |
| 20260501211933 | 87 | 221 | 0.0 | 3.0 | 0.00 | 0.00 | 0.00 | 21 | 1008.3 |
| 20260501211430 | 87 | 234 | 0.0 | 5.0 | 0.00 | 0.00 | 0.00 | 21 | 1008.4 |
| 20260501210929 | 87 | 207 | 0.0 | 5.0 | 0.00 | 0.00 | 0.00 | 20 | 1008.4 |
| 20260501210428 | 87 | 226 | 0.0 | 3.0 | 0.00 | 0.00 | 0.00 | 20 | 1008.4 |
| 20260501205929 | 87 | 263 | 0.0 | 5.0 | 0.00 | 0.00 | 0.00 | 20 | 1008.5 |
| 20260501205653 | 86 | 233 | 0.0 | 5.0 | 0.00 | 0.00 | 0.00 | 21 | 1008.6 |
| 20260501204929 | 86 | 221 | 0.0 | 0.0 | 0.00 | 0.00 | 0.00 | 21 | 1008.6 |
| 20260501204428 | 85 | 265 | 0.0 | 2.0 | 0.00 | 0.00 | 0.00 | 22 | 1008.6 |
| 20260501203930 | 86 | 261 | 0.0 | 2.0 | 0.00 | 0.00 | 0.00 | 22 | 1008.7 |
| 20260501203424 | 85 | 220 | 0.0 | 2.0 | 0.00 | 0.00 | 0.00 | 22 | 1008.8 |
| 20260501202918 | 85 | 32 | 0.0 | 0.0 | 0.00 | 0.00 | 0.00 | 23 | 1008.8 |